| time (UTC) | temp F | wind direction | speed knots | gust knots | rain 1hr in | rain 24hr in | rain mn in | humidity % | barometer mb |
| 20260903224517 | 65 | 345 | 6.1 | 12.2 | 0.00 | 0.00 | 0.00 | 75 | 1016.4 |
| 20260903223518 | 65 | 360 | 9.6 | 15.6 | 0.00 | 0.00 | 0.00 | 75 | 1016.3 |
| 20260903222600 | 65 | 24 | 1.7 | 9.6 | 0.00 | 0.00 | 0.00 | 74 | 1016.4 |
| 20260903221518 | 66 | 227 | 2.6 | 6.1 | 0.00 | 0.00 | 0.00 | 71 | 1016.3 |
| 20260903220539 | 67 | 335 | 5.2 | 15.6 | 0.00 | 0.00 | 0.00 | 68 | 1016.1 |
| 20260903215518 | 67 | 345 | 8.7 | 13.9 | 0.00 | 0.00 | 0.00 | 68 | 1016.0 |
| 20260903214520 | 67 | 355 | 9.6 | 13.0 | 0.00 | 0.00 | 0.00 | 70 | 1016.0 |
| 20260903213518 | 67 | 105 | 0.0 | 3.5 | 0.00 | 0.00 | 0.00 | 70 | 1016.1 |
| 20260903212518 | 67 | 147 | 0.9 | 2.6 | 0.00 | 0.00 | 0.00 | 69 | 1016.1 |
| 20260903211519 | 68 | 196 | 6.1 | 10.4 | 0.00 | 0.00 | 0.00 | 69 | 1016.1 |
| 20260903210519 | 69 | 336 | 4.3 | 8.7 | 0.00 | 0.00 | 0.00 | 67 | 1016.1 |
| 20260903205520 | 69 | 13 | 7.0 | 8.7 | 0.00 | 0.00 | 0.00 | 66 | 1016.1 |
| 20260903204519 | 69 | 172 | 3.5 | 5.2 | 0.00 | 0.00 | 0.00 | 66 | 1016.1 |
| 20260903203558 | 69 | 296 | 2.6 | 7.0 | 0.00 | 0.00 | 0.00 | 65 | 1016.1 |
| 20260903202518 | 69 | 3 | 1.7 | 3.5 | 0.00 | 0.00 | 0.00 | 65 | 1016.1 |
| 20260903201539 | 69 | 0.0 | 0.0 | 0.00 | 0.00 | 0.00 | 66 | 1016.1 | |
| 20260903200519 | 69 | 354 | 2.6 | 5.2 | 0.00 | 0.00 | 0.00 | 66 | 1016.1 |
| 20260903195519 | 70 | 194 | 8.7 | 21.7 | 0.00 | 0.00 | 0.00 | 66 | 1016.3 |
| 20260903194520 | 70 | 323 | 3.5 | 8.7 | 0.00 | 0.00 | 0.00 | 63 | 1016.2 |
| 20260903193518 | 69 | 19 | 1.7 | 4.3 | 0.00 | 0.00 | 0.00 | 64 | 1016.3 |
| 20260903192520 | 70 | 32 | 1.7 | 2.6 | 0.00 | 0.00 | 0.00 | 65 | 1016.3 |
| 20260903191520 | 71 | 0.0 | 0.0 | 0.00 | 0.00 | 0.00 | 63 | 1016.3 | |
| 20260903190557 | 72 | 284 | 0.9 | 2.6 | 0.00 | 0.00 | 0.00 | 61 | 1016.2 |
| 20260903185518 | 72 | 141 | 2.6 | 4.3 | 0.00 | 0.00 | 0.00 | 57 | 1016.3 |
| 20260903184520 | 73 | 0.0 | 0.0 | 0.00 | 0.00 | 0.00 | 57 | 1016.4 | |
| 20260903183518 | 73 | 34 | 2.6 | 4.3 | 0.00 | 0.00 | 0.00 | 55 | 1016.5 |
| 20260903182520 | 73 | 17 | 6.1 | 7.0 | 0.00 | 0.00 | 0.00 | 55 | 1016.5 |
| 20260903181600 | 73 | 22 | 6.1 | 7.8 | 0.00 | 0.00 | 0.00 | 56 | 1016.4 |
| 20260903180520 | 73 | 15 | 7.0 | 7.8 | 0.00 | 0.00 | 0.00 | 56 | 1016.4 |
| 20260903175519 | 72 | 23 | 7.0 | 8.7 | 0.00 | 0.00 | 0.00 | 56 | 1016.4 |
| 20260903174520 | 73 | 17 | 6.1 | 7.0 | 0.00 | 0.00 | 0.00 | 57 | 1016.4 |
| 20260903173518 | 73 | 17 | 6.1 | 7.0 | 0.00 | 0.00 | 0.00 | 56 | 1016.4 |
| 20260903172519 | 73 | 13 | 6.1 | 7.0 | 0.00 | 0.00 | 0.00 | 57 | 1016.4 |
| 20260903171517 | 72 | 18 | 5.2 | 7.0 | 0.00 | 0.00 | 0.00 | 58 | 1016.2 |
| 20260903170520 | 73 | 15 | 5.2 | 6.1 | 0.00 | 0.00 | 0.00 | 58 | 1016.2 |
| 20260903165518 | 74 | 33 | 5.2 | 6.1 | 0.00 | 0.00 | 0.00 | 54 | 1016.0 |
| 20260903164520 | 74 | 57 | 5.2 | 6.1 | 0.00 | 0.00 | 0.00 | 55 | 1015.8 |
| 20260903163518 | 75 | 61 | 4.3 | 6.1 | 0.00 | 0.00 | 0.00 | 56 | 1015.7 |
| 20260903162520 | 76 | 32 | 4.3 | 6.1 | 0.00 | 0.00 | 0.00 | 55 | 1015.6 |
| 20260903161538 | 76 | 38 | 3.5 | 6.1 | 0.00 | 0.00 | 0.00 | 54 | 1015.6 |
| 20260903160518 | 77 | 22 | 1.7 | 6.1 | 0.00 | 0.00 | 0.00 | 52 | 1015.6 |
| 20260903155519 | 78 | 24 | 2.6 | 5.2 | 0.00 | 0.00 | 0.00 | 51 | 1015.5 |
| 20260903154518 | 78 | 12 | 1.7 | 4.3 | 0.00 | 0.00 | 0.00 | 51 | 1015.6 |
| 20260903153518 | 79 | 314 | 2.6 | 4.3 | 0.00 | 0.00 | 0.00 | 47 | 1015.5 |
| 20260903152518 | 79 | 0.0 | 0.0 | 0.00 | 0.00 | 0.00 | 47 | 1015.5 | |
| 20260903151519 | 79 | 342 | 2.6 | 7.0 | 0.00 | 0.00 | 0.00 | 48 | 1015.5 |
| 20260903150539 | 80 | 3 | 8.7 | 13.9 | 0.00 | 0.00 | 0.00 | 46 | 1015.5 |
| 20260903145519 | 80 | 20 | 7.0 | 14.8 | 0.00 | 0.00 | 0.00 | 46 | 1015.6 |
| 20260903144518 | 80 | 315 | 7.8 | 11.3 | 0.00 | 0.00 | 0.00 | 47 | 1015.6 |
| 20260903143537 | 80 | 285 | 9.6 | 16.5 | 0.00 | 0.00 | 0.00 | 47 | 1015.7 |
| 20260903142518 | 79 | 260 | 6.1 | 13.9 | 0.00 | 0.00 | 0.00 | 47 | 1015.8 |
| 20260903141518 | 81 | 228 | 10.4 | 18.2 | 0.00 | 0.00 | 0.00 | 45 | 1015.7 |
| 20260903140518 | 80 | 275 | 11.3 | 16.5 | 0.00 | 0.00 | 0.00 | 47 | 1015.8 |
| 20260903135539 | 81 | 323 | 9.6 | 20.9 | 0.00 | 0.00 | 0.00 | 47 | 1015.8 |
| 20260903134520 | 80 | 315 | 9.6 | 18.2 | 0.00 | 0.00 | 0.00 | 48 | 1015.9 |
| 20260903133538 | 81 | 270 | 11.3 | 27.8 | 0.00 | 0.00 | 0.00 | 47 | 1015.9 |
| 20260903132520 | 81 | 269 | 9.6 | 18.2 | 0.00 | 0.00 | 0.00 | 47 | 1016.0 |
| 20260903131518 | 81 | 280 | 12.2 | 19.1 | 0.00 | 0.00 | 0.00 | 46 | 1016.2 |
| 20260903130519 | 80 | 356 | 8.7 | 18.2 | 0.00 | 0.00 | 0.00 | 48 | 1016.2 |
| 20260903125518 | 81 | 348 | 11.3 | 17.4 | 0.00 | 0.00 | 0.00 | 48 | 1016.3 |
| 20260903124540 | 80 | 17 | 3.5 | 7.0 | 0.00 | 0.00 | 0.00 | 49 | 1016.4 |
| 20260903123539 | 80 | 274 | 14.8 | 19.1 | 0.00 | 0.00 | 0.00 | 49 | 1016.6 |
| 20260903122521 | 80 | 280 | 7.8 | 24.3 | 0.00 | 0.00 | 0.00 | 49 | 1016.6 |
| 20260903121517 | 79 | 260 | 8.7 | 16.5 | 0.00 | 0.00 | 0.00 | 48 | 1016.8 |
| 20260903120519 | 79 | 304 | 11.3 | 20.9 | 0.00 | 0.00 | 0.00 | 47 | 1016.9 |
| 20260903115539 | 79 | 297 | 15.6 | 26.1 | 0.00 | 0.00 | 0.00 | 50 | 1017.0 |
| 20260903114520 | 77 | 338 | 7.0 | 12.2 | 0.00 | 0.00 | 0.00 | 53 | 1017.1 |
| 20260903113520 | 78 | 281 | 8.7 | 20.0 | 0.00 | 0.00 | 0.00 | 53 | 1017.2 |
| 20260903112519 | 78 | 278 | 17.4 | 26.1 | 0.00 | 0.00 | 0.00 | 53 | 1017.3 |
| 20260903111517 | 79 | 10 | 6.1 | 11.3 | 0.00 | 0.00 | 0.00 | 53 | 1017.4 |
| 20260903110519 | 78 | 327 | 9.6 | 14.8 | 0.00 | 0.00 | 0.00 | 55 | 1017.5 |
| 20260903105519 | 77 | 223 | 7.0 | 13.9 | 0.00 | 0.00 | 0.00 | 55 | 1017.6 |
| 20260903104539 | 77 | 283 | 13.0 | 26.1 | 0.00 | 0.00 | 0.00 | 53 | 1017.7 |
| 20260903103518 | 77 | 309 | 11.3 | 20.9 | 0.00 | 0.00 | 0.00 | 54 | 1017.8 |
| 20260903102558 | 77 | 307 | 9.6 | 18.2 | 0.00 | 0.00 | 0.00 | 56 | 1017.9 |
| 20260903101518 | 76 | 299 | 7.8 | 18.2 | 0.00 | 0.00 | 0.00 | 57 | 1018.0 |
| 20260903100520 | 76 | 323 | 10.4 | 18.2 | 0.00 | 0.00 | 0.00 | 58 | 1018.1 |
| 20260903095518 | 76 | 292 | 13.0 | 24.3 | 0.00 | 0.00 | 0.00 | 59 | 1018.2 |
| 20260903094517 | 76 | 303 | 12.2 | 19.1 | 0.00 | 0.00 | 0.00 | 60 | 1018.3 |
| 20260903093519 | 75 | 340 | 8.7 | 18.2 | 0.00 | 0.00 | 0.00 | 61 | 1018.4 |
| 20260903092519 | 74 | 261 | 9.6 | 19.1 | 0.00 | 0.00 | 0.00 | 58 | 1018.5 |
| 20260903091539 | 73 | 293 | 11.3 | 26.1 | 0.00 | 0.00 | 0.00 | 65 | 1018.6 |
| 20260903090517 | 73 | 314 | 13.0 | 18.2 | 0.00 | 0.00 | 0.00 | 68 | 1018.7 |
| 20260903085559 | 72 | 313 | 8.7 | 14.8 | 0.00 | 0.00 | 0.00 | 70 | 1018.8 |
| 20260903084517 | 72 | 292 | 11.3 | 26.1 | 0.00 | 0.00 | 0.00 | 70 | 1018.9 |
| 20260903083537 | 71 | 338 | 12.2 | 15.6 | 0.00 | 0.00 | 0.00 | 68 | 1018.9 |
| 20260903082518 | 72 | 321 | 11.3 | 19.1 | 0.00 | 0.00 | 0.00 | 68 | 1019.0 |
| 20260903081519 | 72 | 320 | 9.6 | 17.4 | 0.00 | 0.00 | 0.00 | 68 | 1019.0 |
| 20260903080537 | 71 | 292 | 16.5 | 26.9 | 0.00 | 0.00 | 0.00 | 71 | 1019.0 |
| 20260903075519 | 70 | 298 | 16.5 | 21.7 | 0.00 | 0.00 | 0.00 | 73 | 1019.0 |
| 20260903074518 | 70 | 301 | 16.5 | 26.9 | 0.00 | 0.00 | 0.00 | 77 | 1019.0 |
| 20260903073518 | 69 | 289 | 17.4 | 26.1 | 0.00 | 0.00 | 0.00 | 77 | 1019.1 |
| 20260903072519 | 69 | 287 | 17.4 | 24.3 | 0.00 | 0.00 | 0.00 | 79 | 1018.9 |
| 20260903071519 | 69 | 288 | 15.6 | 23.5 | 0.00 | 0.00 | 0.00 | 77 | 1019.0 |
| 20260903070516 | 69 | 317 | 12.2 | 24.3 | 0.00 | 0.00 | 0.00 | 78 | 1019.0 |
| 20260903065518 | 68 | 298 | 13.9 | 24.3 | 0.00 | 0.00 | 0.00 | 81 | 1019.0 |
| 20260903064520 | 67 | 288 | 19.1 | 25.2 | 0.00 | 0.00 | 0.00 | 81 | 1019.0 |
| 20260903063519 | 67 | 279 | 16.5 | 26.1 | 0.00 | 0.00 | 0.00 | 80 | 1019.0 |
| 20260903062517 | 67 | 283 | 17.4 | 26.9 | 0.00 | 0.00 | 0.00 | 81 | 1019.0 |
| 20260903061538 | 67 | 287 | 17.4 | 23.5 | 0.00 | 0.00 | 0.00 | 79 | 1019.0 |
| 20260903060518 | 67 | 293 | 15.6 | 20.0 | 0.00 | 0.00 | 0.00 | 78 | 1019.1 |
| 20260903055518 | 68 | 349 | 11.3 | 20.9 | 0.00 | 0.00 | 0.00 | 76 | 1019.0 |
| 20260903054516 | 68 | 353 | 5.2 | 8.7 | 0.00 | 0.00 | 0.00 | 77 | 1019.0 |
| 20260903053519 | 65 | 36 | 3.5 | 8.7 | 0.00 | 0.00 | 0.00 | 83 | 1019.1 |
| 20260903052520 | 64 | 347 | 7.0 | 11.3 | 0.00 | 0.00 | 0.00 | 86 | 1019.1 |
| 20260903051519 | 63 | 5 | 5.2 | 9.6 | 0.00 | 0.00 | 0.00 | 87 | 1019.0 |
| 20260903050521 | 63 | 353 | 7.8 | 11.3 | 0.00 | 0.00 | 0.00 | 87 | 1019.1 |
| 20260903045517 | 64 | 4 | 8.7 | 16.5 | 0.00 | 0.00 | 0.00 | 85 | 1019.0 |
| 20260903044521 | 63 | 346 | 6.1 | 11.3 | 0.00 | 0.00 | 0.00 | 87 | 1019.0 |
| 20260903043518 | 63 | 10 | 6.1 | 9.6 | 0.00 | 0.00 | 0.00 | 87 | 1018.9 |
| 20260903042520 | 62 | 359 | 7.0 | 10.4 | 0.00 | 0.00 | 0.00 | 88 | 1018.9 |
| 20260903041518 | 62 | 10 | 8.7 | 12.2 | 0.00 | 0.00 | 0.00 | 89 | 1018.9 |
| 20260903040520 | 62 | 14 | 10.4 | 14.8 | 0.00 | 0.00 | 0.00 | 88 | 1018.7 |
| 20260903035518 | 62 | 14 | 13.9 | 20.0 | 0.00 | 0.00 | 0.00 | 87 | 1018.6 |
| 20260903034521 | 62 | 11 | 13.9 | 20.0 | 0.00 | 0.00 | 0.00 | 87 | 1018.8 |
| 20260903033520 | 62 | 21 | 11.3 | 16.5 | 0.00 | 0.00 | 0.00 | 86 | 1018.9 |
| 20260903032521 | 62 | 4 | 9.6 | 14.8 | 0.00 | 0.00 | 0.00 | 86 | 1018.9 |
| 20260903031517 | 62 | 2 | 12.2 | 17.4 | 0.00 | 0.00 | 0.00 | 85 | 1018.9 |
| 20260903030520 | 63 | 352 | 12.2 | 19.1 | 0.00 | 0.00 | 0.00 | 83 | 1018.8 |
| 20260903025518 | 63 | 348 | 12.2 | 19.1 | 0.00 | 0.00 | 0.00 | 82 | 1018.6 |
| 20260903024520 | 64 | 6 | 15.6 | 22.6 | 0.00 | 0.00 | 0.00 | 81 | 1018.6 |
| 20260903023519 | 64 | 355 | 16.5 | 22.6 | 0.00 | 0.00 | 0.00 | 80 | 1018.7 |
| 20260903022521 | 65 | 13 | 15.6 | 23.5 | 0.00 | 0.00 | 0.00 | 79 | 1018.6 |
| 20260903021539 | 65 | 16 | 12.2 | 23.5 | 0.00 | 0.00 | 0.00 | 77 | 1018.6 |
| 20260903020521 | 65 | 347 | 9.6 | 16.5 | 0.00 | 0.00 | 0.00 | 77 | 1018.7 |
| 20260903015517 | 65 | 354 | 15.6 | 22.6 | 0.00 | 0.00 | 0.00 | 77 | 1018.7 |
| 20260903014517 | 65 | 325 | 12.2 | 22.6 | 0.00 | 0.00 | 0.00 | 77 | 1018.8 |
| 20260903013519 | 66 | 329 | 11.3 | 20.0 | 0.00 | 0.00 | 0.00 | 76 | 1018.7 |
| 20260903012520 | 66 | 4 | 8.7 | 13.9 | 0.00 | 0.00 | 0.00 | 76 | 1018.6 |
| 20260903011539 | 66 | 10 | 8.7 | 15.6 | 0.00 | 0.00 | 0.00 | 76 | 1018.5 |
| 20260903010521 | 66 | 5 | 14.8 | 22.6 | 0.00 | 0.00 | 0.00 | 77 | 1018.5 |
| 20260903005517 | 66 | 8 | 10.4 | 16.5 | 0.00 | 0.00 | 0.00 | 77 | 1018.4 |
| 20260903004521 | 66 | 360 | 8.7 | 13.0 | 0.00 | 0.00 | 0.00 | 78 | 1018.5 |
| 20260903003539 | 66 | 358 | 9.6 | 19.1 | 0.00 | 0.00 | 0.00 | 77 | 1018.4 |
| 20260903002518 | 66 | 340 | 12.2 | 17.4 | 0.00 | 0.00 | 0.00 | 77 | 1018.4 |
| 20260903001518 | 66 | 353 | 14.8 | 21.7 | 0.00 | 0.00 | 0.00 | 76 | 1018.3 |
| 20260903000540 | 67 | 344 | 12.2 | 18.2 | 0.00 | 0.00 | 0.00 | 74 | 1018.5 |
| 20260902235518 | 66 | 343 | 11.3 | 18.2 | 0.00 | 0.00 | 0.00 | 76 | 1018.4 |
| 20260902234521 | 66 | 333 | 9.6 | 26.9 | 0.00 | 0.00 | 0.00 | 76 | 1018.4 |
| 20260902233519 | 67 | 337 | 10.4 | 14.8 | 0.00 | 0.00 | 0.00 | 74 | 1018.2 |
| 20260902232521 | 67 | 353 | 8.7 | 16.5 | 0.00 | 0.00 | 0.00 | 74 | 1018.2 |
| 20260902231538 | 67 | 335 | 6.1 | 11.3 | 0.00 | 0.00 | 0.00 | 74 | 1018.2 |
| 20260902230519 | 68 | 329 | 7.0 | 12.2 | 0.00 | 0.00 | 0.00 | 72 | 1018.3 |
| 20260902225518 | 68 | 349 | 7.0 | 10.4 | 0.00 | 0.00 | 0.00 | 71 | 1018.3 |